Location: Marshall
(39.8477°N, 87.1868°W)
Time: 02:43:17
(UTC+00:00)

Envisat - Pass Details

Date: 11 May 2026
Orbit: 761 x 763 km, 98.4° (Epoch: 9 June)

Event Time Altitude Azimuth Distance (km) Brightness Sun altitude
Rises 09:47:37 0° 355° (N) 3,232 6.6 -9.3°
Reaches altitude 10° 09:50:42 10° 336° (NNW) 2,301 5.6 -8.8°
Maximum altitude 09:53:48 17° 297° (WNW) 1,875 4.7 -8.3°
Drops below altitude 10° 09:56:55 10° 259° (W) 2,291 4.9 -7.8°
Enters shadow 09:57:27 - 254° (WSW) 2,429 5.0 -7.7°
